Pearl, MS

6:35 PM CST on January 24, 2017 (GMT -0600)
Jackson-Evers International

Weather History for KJAN - February, 2013

Change the Weather History Date:

Tuesday, February 5, 2013

  Actual Average Record
Temperature  
Mean Temperature 55 °F 47 °F  
Max Temperature 64 °F 58 °F 81 °F (2008)
Min Temperature 45 °F 37 °F 10 °F (1996)
Degree Days  
Heating Degree Days 10 18  
Month to date heating degree days 76 90  
Since 1 July heating degree days 1402 1642  
Cooling Degree Days 0 0  
Month to date cooling degree days 0 0  
Year to date cooling degree days 14 4  
Growing Degree Days 4 (Base 50)    
Moisture  
Dew Point 50 °F    
Average Humidity 86    
Maximum Humidity 100    
Minimum Humidity 72    
Precipitation  
Precipitation 0.00 in 0.17 in 3.46 in (2004)
Month to date precipitation 0.00 0.88  
Year to date precipitation 8.58 5.85  
Sea Level Pressure  
Sea Level Pressure 30.00 in    
Wind  
Wind Speed 3 mph (South)    
Max Wind Speed 9 mph    
Max Gust Speed 20 mph    
Visibility 5 miles    
Events Fog    
T = Trace of Precipitation, MM = Missing Value Source: NWS Daily Summary

Daily Weather History Graph

Daily Weather History Graph

Search for Another Location

Airport or City:

Trip Planner

Search our weather history database for the weather conditions in past years. The results will help you decide how hot, cold, wet, or windy it might be!

Date:

Astronomy

Feb. 05, 2013 Rise Set
Actual Time 6:51 AM CST 5:37 PM CST
Civil Twilight 6:25 AM CST 6:03 PM CST
Nautical Twilight 5:56 AM CST 6:32 PM CST
Astronomical Twilight 5:27 AM CST 7:01 PM CST
Moon 2:27 AM CST (2/5) 1:01 PM CST (2/5)
Length of Visible Light 11h 37m
Length of Day
10h 46m
Waning Crescent, 26% of the Moon is Illuminated
Feb 5
Waning Crescent
Feb 10
New
Feb 17
First Quarter
Feb 25
Full
Mar 4
Last Quarter

Hourly Weather History & Observations

Time (CST) Temp. Windchill Dew Point Humidity Pressure Visibility Wind Dir Wind Speed Gust Speed Precip Events Conditions
12:54 AM 48.9 °F - 41.0 °F 74% 29.96 in 10.0 mi Calm Calm - N/A   Clear
1:22 AM 46.4 °F 45.2 °F 41.0 °F 81% 29.96 in 10.0 mi SSE 3.5 mph - N/A   Mostly Cloudy
1:31 AM 46.4 °F 45.2 °F 42.8 °F 87% 29.96 in 10.0 mi SSE 3.5 mph - N/A   Overcast
1:54 AM 46.0 °F 43.1 °F 42.1 °F 86% 29.96 in 10.0 mi South 5.8 mph - N/A   Overcast
2:02 AM 51.8 °F - 44.6 °F 76% 29.96 in 10.0 mi South 6.9 mph - N/A   Overcast
2:54 AM 51.1 °F - 46.9 °F 86% 29.94 in 10.0 mi South 5.8 mph - N/A   Overcast
3:54 AM 52.0 °F - 48.9 °F 89% 29.95 in 9.0 mi South 6.9 mph - N/A   Overcast
4:19 AM 51.8 °F - 50.0 °F 94% 29.95 in 5.0 mi South 8.1 mph - N/A   Overcast
4:29 AM 51.8 °F - 50.0 °F 94% 29.95 in 1.8 mi South 5.8 mph - N/A   Overcast
4:40 AM 51.8 °F - 50.0 °F 94% 29.95 in 0.5 mi South 4.6 mph - N/A Fog Fog
4:50 AM 51.8 °F - 50.0 °F 94% 29.96 in 0.2 mi South 5.8 mph - N/A Fog Fog
4:54 AM 51.1 °F - 51.1 °F 100% 29.95 in 0.2 mi South 5.8 mph - N/A Fog Fog
5:10 AM 51.8 °F - 51.8 °F 100% 29.96 in 0.5 mi South 8.1 mph - N/A Fog Fog
5:25 AM 51.8 °F - 51.8 °F 100% 29.96 in 1.0 mi South 8.1 mph - N/A   Overcast
5:54 AM 52.0 °F - 51.1 °F 97% 29.97 in 1.5 mi South 8.1 mph - N/A   Overcast
6:25 AM 51.8 °F - 51.8 °F 100% 29.98 in 2.0 mi South 4.6 mph - N/A   Overcast
6:32 AM 51.8 °F - 51.8 °F 100% 29.98 in 1.8 mi South 5.8 mph - N/A   Overcast
6:42 AM 51.8 °F - 51.8 °F 100% 29.98 in 2.5 mi South 3.5 mph - N/A   Overcast
6:49 AM 51.8 °F - 51.8 °F 100% 29.99 in 1.0 mi South 3.5 mph - N/A   Overcast
6:54 AM 52.0 °F - 51.1 °F 97% 29.99 in 1.0 mi South 4.6 mph - N/A   Overcast
7:18 AM 51.8 °F - 51.8 °F 100% 30.00 in 2.0 mi South 5.8 mph - N/A   Overcast
7:54 AM 52.0 °F - 51.1 °F 97% 30.01 in 2.0 mi Calm Calm - N/A   Overcast
8:01 AM 53.6 °F - 51.8 °F 94% 30.02 in 1.5 mi Calm Calm - N/A   Overcast
8:54 AM 53.1 °F - 52.0 °F 96% 30.02 in 1.5 mi Calm Calm - N/A   Overcast
9:07 AM 53.6 °F - 51.8 °F 94% 30.02 in 4.0 mi Calm Calm - N/A   Overcast
9:54 AM 55.9 °F - 52.0 °F 87% 30.03 in 4.0 mi SW 5.8 mph - N/A   Overcast
10:05 AM 57.2 °F - 51.8 °F 82% 30.04 in 8.0 mi Calm Calm - N/A   Overcast
10:54 AM 57.0 °F - 53.1 °F 87% 30.04 in 9.0 mi Calm Calm - N/A   Overcast
11:50 AM 59.0 °F - 53.6 °F 82% 30.04 in 10.0 mi Calm Calm - N/A   Overcast
11:54 AM 59.0 °F - 53.1 °F 81% 30.03 in 10.0 mi Calm Calm - N/A   Overcast
12:10 PM 60.8 °F - 53.6 °F 77% 30.03 in 10.0 mi SW 3.5 mph - N/A   Overcast
12:40 PM 60.8 °F - 53.6 °F 77% 30.02 in 10.0 mi Variable 4.6 mph - N/A   Overcast
12:54 PM 62.1 °F - 54.0 °F 75% 30.01 in 10.0 mi Calm Calm - N/A   Overcast
1:22 PM 60.8 °F - 53.6 °F 77% 30.01 in 10.0 mi WNW 3.5 mph - N/A   Overcast
1:54 PM 61.0 °F - 54.0 °F 78% 30.00 in 10.0 mi NW 4.6 mph - N/A   Overcast
2:54 PM 61.0 °F - 55.0 °F 81% 29.99 in 10.0 mi WSW 5.8 mph - N/A   Overcast
3:54 PM 62.1 °F - 55.0 °F 78% 29.99 in 10.0 mi NW 4.6 mph - N/A   Overcast
4:02 PM 62.6 °F - 55.4 °F 77% 29.99 in 10.0 mi Calm Calm - N/A   Mostly Cloudy
4:54 PM 63.0 °F - 55.9 °F 78% 29.98 in 10.0 mi West 3.5 mph - N/A   Scattered Clouds
5:54 PM 57.0 °F - 53.1 °F 87% 29.99 in 10.0 mi Calm Calm - N/A   Mostly Cloudy
6:54 PM 55.0 °F - 53.1 °F 93% 30.01 in 10.0 mi Calm Calm - N/A   Mostly Cloudy
7:54 PM 54.0 °F - 52.0 °F 93% 30.03 in 5.0 mi Calm Calm - N/A   Clear
8:34 PM 50.0 °F - 48.2 °F 94% 30.04 in 2.0 mi Calm Calm - N/A   Mostly Cloudy
8:47 PM 48.2 °F - 48.2 °F 100% 30.05 in 2.0 mi Calm Calm - N/A   Scattered Clouds
8:54 PM 48.9 °F - 48.0 °F 97% 30.05 in 2.0 mi Calm Calm - N/A   Mostly Cloudy
9:05 PM 50.0 °F - 48.2 °F 94% 30.05 in 2.0 mi Calm Calm - N/A   Mostly Cloudy
9:19 PM 48.2 °F - 48.2 °F 100% 30.05 in 0.5 mi Calm Calm - N/A Fog Fog
9:54 PM 48.9 °F - 48.0 °F 97% 30.06 in 0.5 mi Calm Calm - N/A Fog Fog
10:15 PM 46.4 °F - 46.4 °F 100% 30.06 in 0.2 mi Calm Calm - N/A Fog Fog
10:27 PM 46.4 °F - 46.4 °F 100% 30.06 in 0.5 mi Calm Calm - N/A Fog Fog
10:49 PM 48.2 °F - 46.4 °F 93% 30.06 in 0.2 mi Calm Calm - N/A Fog Fog
10:50 PM 48.0 °F - 46.0 °F 93% 30.06 in 0.2 mi Calm Calm - N/A Fog Fog
11:40 PM 44.6 °F - 44.6 °F 100% 30.06 in 0.2 mi Calm Calm - N/A Fog Fog
11:54 PM 46.9 °F - 45.0 °F 93% 30.06 in 0.2 mi Calm Calm - N/A Fog Fog